Find Starlink 5280

NORAD ID: 54166 Int'l Des: 2022-141 Owner: SPXS Country: US Constellation: starlink operational
LEOCIRCULAR

实时位置

正在加载3D地球...

关于 Starlink 5280

正在加载描述...

即将过境

Passes for default location (London). Set your location on the main map for personalized predictions.

高度历史

Loading altitude history...

两行轨道根数

1 54166U 22141K 26122.19758638 -.00000718 00000-0 -27065-4 0 9994
2 54166 53.2173 124.0402 0001197 94.4858 265.6271 15.08831715193937
Epoch: May 2, 2026 • Age: 3 hours

当前状态

高度 559.2 km
速度 7.58 km/s
星下点 -53.36°S, 61.7°E
发射日期 Oct 28, 2022
运行时间 3.5 years
类型 internet

技术详情

分类 Payload
质量 305.00 kg
干质量 290.00 kg
总质量 305.00 kg
长度 0.20 m
直径 2.80 m
跨度 9.00 m
形状 Box + pan
制造商 SPXS
平台类型 Starlink
阶段状态 In Orbit
所有者/国家 SPXS/US

Most Searched